sat.trackr.live / text

‹ back to catalog

STARLINK-4352

NORAD 53047 · 2022-077E

PAYLOAD ACTIVE UNKNOWN

§ Identity

Operator
Country
US
Launch date
2022-07-11
Launch site
AFWTR
Launch vehicle
Mass (kg)
RCS (m²)

Purposes: comms

External: N2YO · Heavens-Above · Gunter

§ Orbital elements

Epoch: 2026-09-19T22:28:42.616704Z

Period
93.91 min
Inclination
97.2847°
Eccentricity
0.0001487
Mean motion
15.33435193 rev/d
Perigee alt
464.6 km
Apogee alt
466.6 km
Semi-major
6,843.7 km
B*
1.3326e-5
RAAN
77.7823°
Arg perigee
90.8820°
Mean anomaly
269.2593°
Rev number
23,021

§ Raw data

STARLINK-43521 53047U 22077E   26262.93660436  .00000355  00000+0  13326-4 0  99932 53047  97.2847  77.7823 0001487  90.8820 269.2593 15.33435193230210

JSON: /api/v1/satellites/53047 · /tle

For live sub-satellite position, see the globe view (requires WebGL).

§ Visibility from observer

Set your observer location to see the next 7 days of passes ≥ 10°. The values pass through the URL so the page stays shareable.

No JS? Fill the form by hand. The geolocation button needs JavaScript.